Home > Weather > Decatur > Past weeks

Flag for U.S.A. Weather for the Past 2 Weeks in Decatur, Illinois, U.S.A.

Now
16 °F

Light snow. Ice fog.


Feels Like: 4 °F
Forecast: 15 / 27 °F
Wind: 9 mph from Southeast

Location: Decatur Airport

Current Time: Feb 14, 2016 at 2:19:20 AM

Latest Report: Feb 14, 2016 at 1:54 AM


Visibility: 1 mi

Pressure: 30.45 "Hg

Humidity: 77%

Dew point: 10 °F

Location of DecaturLocation

Historic Weather in Decatur — Graph

°F

Decatur Temperature Yesterday

Maximum temperature yesterday: 21 °F (at 2:54 PM)
Minimum temperature yesterday: 6 °F (at 6:54 AM)
Average temperature yesterday: 15 °F

High & Low Weather Summary for the Past Weeks

 TemperatureHumidityPressure
High63 °F (Jan 31, 1:54 PM)97% (Feb 2, 8:54 PM)30.68 "Hg (Feb 2, 8:54 PM)
Low6 °F (Feb 13, 6:54 AM)38% (Feb 13, 3:54 PM)29.45 "Hg (Feb 2, 5:54 PM)
Average31 °F69%30.06 "Hg
* Reported Jan 30 12:54 AM — Feb 14 12:54 AM, Decatur, Weather by CustomWeather, © 2016

Note: Actual official high and low records may vary slightly from our data, if they occured in-between our weather recording intervals... More about our weather records

Advertising

Decatur Weather History for the Previous 24 Hours

 ConditionsComfort  
Time TempWeatherWind HumidityBarometerVisibility
12:54 AM
Sun, Feb 14
19 °FOvercast.8 mph49%30.46 "Hg10 mi
11:54 PM
Sat, Feb 13
19 °FOvercast.8 mph52%30.46 "Hg10 mi
10:54 PM18 °FOvercast.9 mph52%30.47 "Hg10 mi
9:54 PM18 °FClear.10 mph52%30.49 "Hg10 mi
8:54 PM19 °FClear.10 mph47%30.51 "Hg10 mi
7:54 PM19 °FClear.10 mph49%30.52 "Hg10 mi
6:54 PM19 °FClear.7 mph47%30.54 "Hg10 mi
5:54 PM19 °FClear.3 mph43%30.55 "Hg10 mi
4:54 PM19 °FSunny.No wind41%30.57 "Hg10 mi
3:54 PM21 °FSunny.5 mph38%30.58 "Hg10 mi
2:54 PM21 °FSunny.7 mph40%30.59 "Hg10 mi
1:54 PM19 °FSunny.8 mph41%30.60 "Hg10 mi
12:54 PM18 °FSunny.N/A39%30.63 "Hg10 mi
11:54 AM17 °FSunny.7 mph41%30.65 "Hg10 mi
10:54 AM14 °FSunny.8 mph44%30.67 "Hg10 mi
9:54 AM12 °FSunny.6 mph48%30.68 "Hg10 mi
8:54 AM10 °FSunny.9 mph50%30.67 "Hg10 mi
7:54 AM9 °FSunny.9 mph52%30.66 "Hg10 mi
6:54 AM6 °FSunny.9 mph60%30.65 "Hg10 mi
5:54 AM7 °FClear.10 mph57%30.63 "Hg10 mi
4:54 AM8 °FClear.12 mph63%30.63 "Hg10 mi
3:54 AM9 °FClear.9 mph66%30.60 "Hg10 mi
2:54 AM10 °FClear.15 mph64%30.58 "Hg10 mi
Weather by CustomWeather, © 2016

See weather overviewHow to use our weather pages